Location: Azul
(36.7830°S, 59.8500°W)
Time: 00:35:47
(UTC-03:00)

First-Move - Pass Details

Date: 24 October 2021
Orbit: 575 x 664 km, 97.6° (Epoch: 30 November)

Event Time Altitude Azimuth Distance (km) Brightness Sun altitude
Rises 05:22:42 0° 351° (N) 2,898 ? -8.5°
Reaches altitude 10° 05:25:01 10° 342° (NNW) 2,015 ? -8.1°
Maximum altitude 05:29:01 34° 276° (W) 1,081 ? -7.3°
Drops below altitude 10° 05:33:09 10° 212° (SSW) 2,088 ? -6.5°
Sets 05:35:36 0° 202° (SSW) 3,019 ? -6.1°
